Погода Ровно

Погода Ровно : погода сейчас, прогноз погоды и архив. Всё, что Вы хотите узнать о погоде Ровно!

Поиск расширенной информации на нашем сайте:

Другие новости

Новости СМИ2

Главная страница сайта

Новости сайта

03.07.2017

Напоминаем, что на нашем специализированном сайте Метеоцентр.Азия вы можете получить высокодетализированные автоматические прогнозы погоды по пунктам России, СНГ и мира в авиационном формате (включающие направление и скорость ветра, видимость, явления погоды, количество и форму облачности, нижнюю и верхнюю границу облачности).


Погода Ровно - сегодня

Время (UTC), дата Ветер
(°,м/с) 
Видим.   Явления Облачность Т
(°С)
Тd
(°С)
f(%) Тe
(°С)
Pmin
(гПа)
dP
(гПа)
Po
(мм)
O2
(г/м3)
Тmin Tmax R s Состояние
почвы
15 17.06.18 050 (СВ) 10 км    9/4 600 м средняя 
[Sc|Ac trans]
+21.3 +15.1 68 +30  1013.8  -1.1  740  274           
18 17.06.18 020 (С) 10 км    9/4 600 м средняя 
[Sc|Ac trans]
+20.2 +16.2 78 +31  1014.3  0.4  741  274    +22.2  0.0     
21 17.06.18 050 (СВ) 10 км    9/5 600 м средняя 
[Sc|Ac trans]
+18.7 +16.2 85 +30  1014.5  0.1  741  276           
00 18.06.18 050 (СВ) 10 км    6/4 600 м средняя 
[Sc|Ac trans]
+16.9 +14.7 87 +26  1014.7  741  278           
03 18.06.18 050 (СВ) 10 км    5/0 средняя, верхняя 
[Ac trans|Ci fib]
+15.8 +14.6 93 +24  1014.5  -0.3  741  279           
06 18.06.18 100 (В) 20000 м    6/0 средняя, верхняя 
[Ac trans|Ci fib]
+22 +17 73 +35  1014.8  0.9  741  273  +15.2         
09 18.06.18 100 (В) 20000 м    6/3 1000 м верхняя 
[Cu hum|Ci fib]
+26 +17.6 60 +40  1014.6  0.1  741  269           
12 18.06.18 200 (Ю) 20000 м    9/8 960 м кучево-дожд., верхняя 
[Cb calv|Ci fib]
+26.2 +17.3 58 +39  1014.5  -0.1  741  269           
15 18.06.18 080 (В) 20000 м  гроза, ливневой дождь  9/6 900 м кучево-дожд., верхняя 
[Cb calv|Ci fib]
+20.8 +16.4 76 +32  1015.8  0.8  742  274           
18 18.06.18 030 (СВ) 10 км  {гроза, ливн. осадки}  9/5 600 м кучево-дожд., средняя 
[Cb calv|Ac trans]
+19.1 +17.1 88 +34  1016.4  0.5  742  276    +28.1  0.1     
00 19.06.18 тихо ()   4000 м  дымка  3/0 средняя 
[Ac trans]
+15.6 +15.3 98 +25  1017.6  743  280           
03 19.06.18 270 (З) 0500 м  туман  ?/?  
+13.7 +13.7 100 +22  1018.3  0.5  743  282           
06 19.06.18 270 (З) 20000 м  {туман}  1/0 верхняя 
[Ci fib]
+21 +16 73 +32  1018.2  0.6  744  275  +13.3         
09 19.06.18 290 (З) 20000 м    ясно 
+26.4 +15.1 50 +35  1017.9  0.1  744  270           
12 19.06.18 250 (З) 20000 м    6/4 1000 м верхняя 
[Cu hum|Ci fib]
+29.1 +14.1 40 +36  1016.8  -0.8  743  268           
15 19.06.18 260 (З) 20000 м    6/4 600 м верхняя 
[Cu hum|Ci fib]
+28.7 +14.4 42 +37  1015.9  -0.9  742  268           
18 19.06.18 280 (З) 20000 м    5/1 600 м средняя, верхняя 
[Cu hum|Ac trans|Ci fib]
+24.9 +15.5 56 +35  1016.9  0.6  743  271    +29.5       
21 19.06.18 280 (З) 10 км    6/0 средняя, верхняя 
[Ac trans|Ci fib]
+20.3 +16.5 79 +32  1018.4  1.1  744  275           
00 20.06.18 тихо ()   10 км    4/0 средняя, верхняя 
[Ac trans|Ci fib]
+16.8 +14 84 +24  1019.8  744  280           
03 20.06.18 280 (З) 20000 м    8/0 средняя, верхняя 
[Ac trans|Ci fib]
+15 +13.6 91 +22  1021.2  1.2  745  282           
06 20.06.18 300 (СЗ) 20000 м    8/0 средняя, верхняя 
[Ac trans|Ci fib]
+21.4 +13.9 62 +28  1021  0.4  746  276  +14.8         
09 20.06.18 290 (З) 20000 м    8/8 960 м 
[Cu hum]
+24.4 +13.3 50 +30  1020.9  0.2  746  273           
12 20.06.18 300 (СЗ) 20000 м    8/8 1000 м 
[Cu hum]
+25.5 +13 46 +31  1020.2  -0.6  745  272           
15 20.06.18 320 (СЗ) 20000 м    5/5 1000 м 
[Cu hum]
+26 +12.2 42 +30  1018.9  -1.2  744  272           
18 20.06.18 290 (З) 20000 м    3/0 средняя 
[Ac trans]
+23.2 +13 53 +29  1018.3  -0.9  744  274    +26.7       
Время (UTC), дата Ветер
(°,м/с) 
Видим.   Явления Облачность Т
(°С)
Тd
(°С)
f(%) Тe
(°С)
Pmin
(гПа)
dP
(гПа)
Po
(мм)
O2
(г/м3)
Тmin Tmax R s Состояние
почвы

Для получения пояснительной информации подведите курсор к названию столбца.

ПОГОДА Ровно - архив

Всё, что Вы хотите узнать о погоде Ровно - удобно и подробно!

Выберите нужную дату (начиная с 1 января 2015* года) и нажмите кнопку "Найти".
Будут отображены архивные сводки погоды по пункту Ровно, начиная с указанной даты.


Отображать данные в формате CSV (для использования в таблицах Excel)


Внимание! Наш архив погоды предназначен исключительно для личного некоммерческого использования в познавательных целях. Если Вам необходимы официальные справки о состоянии погоды (для производственных, юридических, коммерческих и т.п. целей), обращайтесь в органы Росгидромета.

*Примечание: данная дата относится к архиву по метеостанциям СССР (Россия, СНГ, Балтия).
Архив по метеостанциям Зарубежной Европы и Азии (кроме Китая) хранится 10 дней, по другим регионам земного шара (Китай, Африка, Америка, Австралия, Океания) - 1 день.

Ровно - район местоположения метеостанции


Название, широта, долгота, высота метеостанции:
Ровно 50.6°ш. 26.1°д. 231 м над ур. моря [Украина]

Дополнительная информация

В oтличие oт бoльшинства пoгoдных сайтoв мы публикуем пoдрoбную метеoинфoрмацию в детальнoм прoфессиoнальнoм фoрмате.

Характеристики температуры и влажнoсти вoздуха измеряются на высoте 2 м в тени вдали oт зданий и деревьев.
Скoрoсть ветра измеряется на высoте 10 м (на урoвне рoста челoвека скoрoсть ветра ниже в 1.5-2 раза). Если метеoстанция нахoдится в гoрoде или в лесу, тo скoрoсть ветра занижена на 2-4 м/с пo сравнению с oткрытым местoм. Скoрoсть ветра над акватoриями крупных рек и oзёр, а также на вершинах хoлмoв на 2-5 м/с выше, чем в oбычных услoвиях.
Атмoсфернoе давление в разных тoчках местнoсти мoжет значительнo oтличаться oт давления на метеoстанции, в зависимoсти oт услoвий рельефа (при пoдъёме на 10 м давление пoнижается примернo на 1 мм рт.ст.).